Previsão horária em Cerkovno

Hoje, 27 Julho, Terça-feira

Tempo Temperatura Precipitação Vento Pressão Humidade
00:00 +20°C° 0 mm 2 m/s 751 mmHg 69%
01:00 +19°C° 0 mm 2 m/s 751 mmHg 71%
02:00 +19°C° 0 mm 2 m/s 751 mmHg 74%
03:00 +18°C° 0 mm 2 m/s 751 mmHg 76%
04:00 +18°C° 0 mm 2 m/s 751 mmHg 78%
05:00 +18°C° 0 mm 2 m/s 751 mmHg 79%
06:00 +20°C° 0 mm 2 m/s 751 mmHg 72%
07:00 +22°C° 0 mm 3 m/s 751 mmHg 64%
08:00 +25°C° 0 mm 3 m/s 751 mmHg 56%
09:00 +27°C° 0 mm 4 m/s 750 mmHg 51%
10:00 +28°C° 0 mm 4 m/s 750 mmHg 46%
11:00 +30°C° 0 mm 4 m/s 750 mmHg 41%
12:00 +29°C° 0 mm 4 m/s 750 mmHg 44%
13:00 +28°C° 0 mm 3 m/s 749 mmHg 47%
14:00 +27°C° 0 mm 3 m/s 749 mmHg 50%
15:00 +27°C° 0.1 mm 3 m/s 749 mmHg 53%
16:00 +26°C° 0.1 mm 3 m/s 748 mmHg 56%
17:00 +25°C° 0.1 mm 3 m/s 748 mmHg 59%
18:00 +24°C° 0.3 mm 3 m/s 748 mmHg 65%
19:00 +22°C° 0.3 mm 3 m/s 747 mmHg 72%
20:00 +21°C° 0.3 mm 3 m/s 747 mmHg 78%
21:00 +20°C° 1.1 mm 3 m/s 747 mmHg 83%
22:00 +19°C° 1.1 mm 2 m/s 747 mmHg 87%
23:00 +19°C° 1.1 mm 1 m/s 747 mmHg 92%

Amanhã, 28 Julho, Quarta-feira

Tempo Temperatura Precipitação Vento Pressão Humidade
00:00 +19°C° 1.1 mm 1 m/s 746 mmHg 93%
01:00 +19°C° 1.1 mm 1 m/s 746 mmHg 95%
02:00 +19°C° 1.1 mm 1 m/s 746 mmHg 96%
03:00 +19°C° 0.4 mm 1 m/s 746 mmHg 96%
04:00 +19°C° 0.4 mm 1 m/s 746 mmHg 97%
05:00 +19°C° 0.4 mm 1 m/s 745 mmHg 97%
06:00 +19°C° 0.1 mm 1 m/s 745 mmHg 96%
07:00 +20°C° 0.1 mm 1 m/s 745 mmHg 96%
08:00 +20°C° 0.1 mm 1 m/s 745 mmHg 96%
09:00 +21°C° 0.1 mm 1 m/s 745 mmHg 90%
10:00 +23°C° 0.1 mm 1 m/s 745 mmHg 84%
11:00 +24°C° 0.1 mm 1 m/s 745 mmHg 78%
12:00 +25°C° 0.4 mm 2 m/s 745 mmHg 73%
13:00 +26°C° 0.4 mm 2 m/s 745 mmHg 67%
14:00 +27°C° 0.4 mm 2 m/s 745 mmHg 62%
15:00 +27°C° 0.1 mm 2 m/s 745 mmHg 62%
16:00 +27°C° 0.1 mm 2 m/s 744 mmHg 62%
17:00 +26°C° 0.1 mm 2 m/s 744 mmHg 63%
18:00 +25°C° 0 mm 2 m/s 744 mmHg 68%
19:00 +24°C° 0 mm 1 m/s 744 mmHg 73%
20:00 +22°C° 0 mm 1 m/s 744 mmHg 78%
21:00 +22°C° 0 mm 1 m/s 744 mmHg 79%
22:00 +21°C° 0 mm 1 m/s 744 mmHg 81%
23:00 +20°C° 0 mm 1 m/s 744 mmHg 83%

Depois de amanhã, 29 Julho, Quinta-feira

Tempo Temperatura Precipitação Vento Pressão Humidade
00:00 +20°C° 0 mm 1 m/s 744 mmHg 84%
01:00 +20°C° 0 mm 1 m/s 744 mmHg 85%
02:00 +18°C° 0 mm 2 m/s 744 mmHg 86%
03:00 +18°C° 0 mm 2 m/s 744 mmHg 86%
04:00 +18°C° 0 mm 2 m/s 744 mmHg 86%
05:00 +18°C° 0 mm 2 m/s 744 mmHg 87%
06:00 +20°C° 0 mm 2 m/s 744 mmHg 80%
07:00 +21°C° 0 mm 2 m/s 744 mmHg 73%
08:00 +23°C° 0 mm 2 m/s 744 mmHg 66%
09:00 +24°C° 0 mm 2 m/s 744 mmHg 61%
10:00 +25°C° 0 mm 3 m/s 744 mmHg 57%
11:00 +25°C° 0 mm 3 m/s 744 mmHg 53%
12:00 +26°C° 0 mm 3 m/s 744 mmHg 54%
13:00 +26°C° 0 mm 3 m/s 743 mmHg 54%
14:00 +26°C° 0 mm 3 m/s 743 mmHg 55%
15:00 +26°C° 0.3 mm 3 m/s 743 mmHg 60%
16:00 +25°C° 0.3 mm 3 m/s 743 mmHg 64%
17:00 +25°C° 0.3 mm 4 m/s 743 mmHg 69%
18:00 +24°C° 0.1 mm 3 m/s 742 mmHg 74%
19:00 +23°C° 0.1 mm 2 m/s 742 mmHg 78%
20:00 +20°C° 0.1 mm 2 m/s 742 mmHg 82%
21:00 +20°C° 0 mm 2 m/s 742 mmHg 82%
22:00 +19°C° 0 mm 2 m/s 742 mmHg 82%
23:00 +19°C° 0 mm 2 m/s 743 mmHg 82%

30 Julho, Sexta-feira

Tempo Temperatura Precipitação Vento Pressão Humidade
00:00 +18°C° 0 mm 2 m/s 742 mmHg 84%
01:00 +18°C° 0 mm 2 m/s 742 mmHg 85%
02:00 +17°C° 0 mm 2 m/s 742 mmHg 87%
03:00 +17°C° 0 mm 2 m/s 742 mmHg 87%
04:00 +17°C° 0 mm 2 m/s 742 mmHg 86%
05:00 +17°C° 0 mm 2 m/s 742 mmHg 86%
06:00 +18°C° 0 mm 2 m/s 742 mmHg 79%
07:00 +20°C° 0 mm 3 m/s 742 mmHg 72%
08:00 +21°C° 0 mm 3 m/s 742 mmHg 65%
09:00 +22°C° 0 mm 4 m/s 742 mmHg 56%
10:00 +25°C° 0 mm 4 m/s 742 mmHg 47%
11:00 +26°C° 0 mm 5 m/s 742 mmHg 39%
12:00 +26°C° 0 mm 5 m/s 742 mmHg 38%
13:00 +27°C° 0 mm 6 m/s 742 mmHg 36%
14:00 +27°C° 0 mm 6 m/s 741 mmHg 35%
15:00 +26°C° 0 mm 6 m/s 741 mmHg 38%
16:00 +26°C° 0 mm 5 m/s 741 mmHg 40%
17:00 +25°C° 0 mm 5 m/s 741 mmHg 42%
18:00 +22°C° 0 mm 5 m/s 741 mmHg 46%
19:00 +21°C° 0 mm 4 m/s 741 mmHg 50%
20:00 +19°C° 0 mm 3 m/s 741 mmHg 54%
21:00 +18°C° 0 mm 3 m/s 741 mmHg 57%
22:00 +17°C° 0 mm 3 m/s 741 mmHg 61%
23:00 +16°C° 0 mm 2 m/s 741 mmHg 65%

31 Julho, Sábado

Tempo Temperatura Precipitação Vento Pressão Humidade
00:00 +16°C° 0 mm 2 m/s 741 mmHg 68%
01:00 +16°C° 0 mm 3 m/s 741 mmHg 70%
02:00 +16°C° 0 mm 3 m/s 741 mmHg 73%
03:00 +14°C° 0 mm 3 m/s 741 mmHg 73%
04:00 +14°C° 0 mm 3 m/s 741 mmHg 74%
05:00 +14°C° 0 mm 3 m/s 741 mmHg 74%
06:00 +17°C° 0 mm 3 m/s 741 mmHg 69%
07:00 +18°C° 0 mm 4 m/s 741 mmHg 64%
08:00 +20°C° 0 mm 4 m/s 741 mmHg 59%
09:00 +21°C° 0 mm 4 m/s 741 mmHg 54%
10:00 +23°C° 0 mm 5 m/s 741 mmHg 49%
11:00 +25°C° 0 mm 5 m/s 741 mmHg 45%
12:00 +26°C° 0 mm 5 m/s 741 mmHg 43%
13:00 +26°C° 0 mm 5 m/s 741 mmHg 41%
14:00 +27°C° 0 mm 5 m/s 741 mmHg 39%
15:00 +26°C° 0 mm 4 m/s 741 mmHg 42%
16:00 +26°C° 0 mm 4 m/s 741 mmHg 45%
17:00 +25°C° 0 mm 3 m/s 741 mmHg 48%
18:00 +24°C° 0 mm 2 m/s 741 mmHg 53%
19:00 +21°C° 0 mm 2 m/s 740 mmHg 58%
20:00 +21°C° 0 mm 1 m/s 740 mmHg 64%
21:00 +19°C° 0 mm 2 m/s 740 mmHg 66%
22:00 +18°C° 0 mm 2 m/s 740 mmHg 69%
23:00 +17°C° 0 mm 2 m/s 740 mmHg 71%

1 Agosto, Domingo

Tempo Temperatura Precipitação Vento Pressão Humidade
00:00 +17°C° 0.1 mm 2 m/s 740 mmHg 76%
01:00 +17°C° 0.1 mm 2 m/s 740 mmHg 80%
02:00 +17°C° 0.1 mm 2 m/s 740 mmHg 84%
03:00 +17°C° 0 mm 2 m/s 740 mmHg 88%
04:00 +16°C° 0 mm 2 m/s 740 mmHg 92%
05:00 +16°C° 0 mm 2 m/s 740 mmHg 96%
06:00 +17°C° 0 mm 3 m/s 740 mmHg 86%
07:00 +19°C° 0 mm 3 m/s 740 mmHg 76%
08:00 +20°C° 0 mm 4 m/s 740 mmHg 66%
09:00 +21°C° 0 mm 4 m/s 741 mmHg 61%
10:00 +22°C° 0 mm 4 m/s 741 mmHg 57%
11:00 +23°C° 0 mm 5 m/s 741 mmHg 52%
12:00 +23°C° 0.1 mm 5 m/s 741 mmHg 53%
13:00 +22°C° 0.1 mm 4 m/s 741 mmHg 54%
14:00 +22°C° 0.1 mm 4 m/s 741 mmHg 55%
15:00 +23°C° 0 mm 4 m/s 741 mmHg 51%
16:00 +25°C° 0 mm 4 m/s 741 mmHg 46%
17:00 +25°C° 0 mm 4 m/s 741 mmHg 42%
18:00 +23°C° 0 mm 4 m/s 741 mmHg 47%
19:00 +21°C° 0 mm 3 m/s 741 mmHg 52%
20:00 +20°C° 0 mm 2 m/s 742 mmHg 57%
21:00 +18°C° 0 mm 2 m/s 742 mmHg 61%
22:00 +17°C° 0 mm 2 m/s 742 mmHg 66%
23:00 +16°C° 0 mm 2 m/s 742 mmHg 70%
Mostrar mais

Necessitamos do seu Consentimento

A Meteoprog e os seus Fornecedores de Serviços podem armazenar e aceder a dados pessoais como cookies, identificadores do dispositivo ou outras tecnologias semelhantes existentes no seu dispositivo e processar estes dados para personalizar conteúdos e anúncios, assim como funcionalidades nas redes sociais e análise de tráfego.

  • Armazenar e/ou aceder a informações no seu dispositivo

    Os cookies, identificadores do dispositivo ou outras informações podem ser armazenados ou acedidos no seu dispositivo, para os fins acima indicados.

  • Anúncios e conteúdos personalizados, medição de anúncios e conteúdos, dados sobre o público-alvo e desenvolvimento de produtos

    Os anúncios e os conteúdos podem ser personalizados com base num perfil. Podem ser adicionados dados adicionais para uma maior personalização dos anúncios e dos conteúdos. A eficácia dos anúncios e dos conteúdos pode ser medida. Podem ser obtidas informações sobre o público que visualizou os anúncios e os conteúdos. Estes dados podem ser usados para desenvolver ou melhorar sistemas, softwares ou a experiência do utilizador.

Ao clicar em "Eu concordo”, permitirá o uso de cookies, identificadores do dispositivo e web beacons mencionados ou outras tecnologias semelhantes. As configurações do navegador do seu dispositivo podem ser alteradas.

Para certos fins, podem ser invocados interesses legítimos ao invés de consentimento. Pode ler mais informação sobre este assunto na nossa Política de Privacidade e Cookies.